sat.trackr.live / text

‹ back to catalog

SARAL

NORAD 39086 · 2013-009A

PAYLOAD ACTIVE UNKNOWN

§ Identity

Operator
Country
IND
Launch date
2013-02-25
Launch site
SRILR
Launch vehicle
Mass (kg)
RCS (m²)
1.68

Purposes: earth_obs

External: N2YO · Heavens-Above · Gunter

§ Orbital elements

Epoch: 2026-09-20T03:32:49.678944Z

Period
100.49 min
Inclination
98.5564°
Eccentricity
0.0002357
Mean motion
14.32907970 rev/d
Perigee alt
780.3 km
Apogee alt
783.7 km
Semi-major
7,160.2 km
B*
2.9819e-5
RAAN
88.5295°
Arg perigee
37.5718°
Mean anomaly
322.5631°
Rev number
70,920

§ Raw data

SARAL1 39086U 13009A   26263.14779721  .00000038  00000+0  29819-4 0  99992 39086  98.5564  88.5295 0002357  37.5718 322.5631 14.32907970709202

JSON: /api/v1/satellites/39086 · /tle

For live sub-satellite position, see the globe view (requires WebGL).

§ Visibility from observer

Set your observer location to see the next 7 days of passes ≥ 10°. The values pass through the URL so the page stays shareable.

No JS? Fill the form by hand. The geolocation button needs JavaScript.

§ Radio — SatNOGS DB

ModeDescriptionDownlinkUplink
BPSK PMT-A3 ARGOS-3 465.988 MHz
QPSK Mode L 1 - ARGOS 1.698 GHz
QPSK Mode L 2 1.703 GHz
FM Mode S 1 2.203 GHz
FM Mode S 2 2.225 GHz
FM Mode S 3 2.280 GHz
FM Mode S dumps 2.245 GHz
FM Mode X 8.125 GHz
FM Mode X dumps 8.213 GHz

9 transmitters · refreshed weekly from db.satnogs.org